909 
ASUS46 KSEW 300910
RWRWA 

WASHINGTON REGIONAL WEATHER ROUNDUP
NATIONAL WEATHER SERVICE SEATTLE WA
200 AM PDT SAT JUL 30 2016

NOTE:"FAIR" INDICATES FEW OR NO CLOUDS BELOW 12,000 FEET WITH NO 
SIGNIFICANT WEATHER AND/OR OBSTRUCTIONS TO VISIBILITY.

WAZ505-507>509-301000-
SEATTLE, TACOMA, EVERETT, AND VICINITY
  
CITY           SKY/WX    TMP DP  RH WIND       PRES   REMARKS
EVERETT        CLEAR     57  51  80 N6        29.91S                  
BOEING FIELD   CLEAR     66  55  67 W6        29.89R                  
RENTON         CLEAR     68  58  70 SE7       29.89R                  
SEATAC AIRPORT PTCLDY    63  59  87 S6        29.91S                  
JBLM-MCCHORD   CLEAR     62  57  84 W8        29.92R                  
PUYALLUP       FAIR      63  57  82 CALM      29.92S                  
BREMERTON      CLEAR     55  54  94 S5        29.94S                  
JBLM-FT LEWIS  CLEAR     61  55  82 S5        29.92R                  
TACOMA NARROWS CLEAR     59  54  83 SW5       29.92R                  
$$
 
WAZ001-503-506-510-514-515-301000-
NORTH INTERIOR
  
CITY           SKY/WX    TMP DP  RH WIND       PRES   REMARKS
BELLINGHAM     CLEAR     64  53  67 W3        29.90S                  
FRIDAY HARBOR  CLEAR     53  51  93 CALM      29.90S                  
EASTSOUND      CLEAR     64  54  68 N9G16     29.88R                  
PORT ANGELES   CLEAR     54  50  86 W5        29.90F                  
EDIZ HOOK      FAIR      55  51  86 W8        29.90S                  
PORT TOWNSEND  FAIR      55  52  88 CALM      29.91S                  
NAS WHIDBEY    CLEAR     56  50  80 CALM      29.94S                  
ARLINGTON      CLEAR     57  46  67 CALM      29.91F                  
BURLINGTON     CLEAR     54  52  94 CALM      29.90S                  
$$
 
WAZ020-022-039-040-504-511-512-301000-
SOUTHWEST INTERIOR
  
CITY           SKY/WX    TMP DP  RH WIND       PRES   REMARKS
SHELTON        CLEAR     56  51  84 SW14      29.91R                  
OLYMPIA        CLEAR     56  51  84 S8        29.93R                  
CHEHALIS       FAIR      57  54  88 SW7       29.96S                  
KELSO          CLOUDY    61  54  77 W8        29.98S                  
VANCOUVER      CLEAR     62  53  72 NW6       29.94R                  
SCAPPOOSE, OR  CLEAR     61  52  72 N10       29.94R                  
PORTLAND, OR   CLEAR     63  54  72 NW5       29.95R                  
$$
 
WAZ021-516-517-301000-
WASHINGTON COAST
  
CITY           SKY/WX    TMP DP  RH WIND       PRES   REMARKS
FORKS          CLEAR     47  47 100 CALM      29.94F                  
HOQUIAM        MOCLDY    57  54  89 W8        29.97S FOG              
ASTORIA, OR    CLOUDY    59  55  87 W5        30.01S                  
$$
 
WAZ019-023-024-040-518-519-301000-
CASCADE MOUNTAINS AND COLUMBIA GORGE
  
CITY           SKY/WX    TMP DP  RH WIND       PRES   REMARKS
STAMPEDE PASS  CLEAR     56  51  84 SW6       29.99F                  
TROUTDALE, OR  CLEAR     64  55  72 VRB3      29.94R                  
THE DALLES, OR CLEAR     76  57  51 NW15G24   29.78R                  
$$

WAZ026-027-041>044-520-521-301000-
EAST SLOPES
  
CITY           SKY/WX    TMP DP  RH WIND       PRES   REMARKS
OMAK           CLEAR     73  43  33 NW9       29.72S                  
WENATCHEE      CLEAR     76  44  32 NW15      29.75F                  
ELLENSBURG     CLEAR     72  51  47 NW20G26   29.81F                  
YAKIMA         CLEAR     81  46  29 N13       29.77S                  
$$

WAZ028-034-035-301000-
COLUMBIA BASIN
  
CITY           SKY/WX    TMP DP  RH WIND       PRES   REMARKS
EPHRATA        CLEAR     81  46  29 NW13G24   29.71R                  
MOSES LAKE     CLEAR     77  45  32 NW7       29.72S                  
PASCO          CLEAR     79  55  43 W10       29.72R                  
HERMISTON, OR  CLEAR     78  55  44 SW10      29.74R                  
$$

WAZ036>038-301000-
NORTHEAST WASHINGTON
  
CITY           SKY/WX    TMP DP  RH WIND       PRES   REMARKS
SPOKANE GEIGER CLEAR     74  43  32 SE8       29.76F                  
SPOKANE FELTS  CLEAR     67  52  58 NE3       29.75F                  
FAIRCHILD AFB  CLEAR     71  46  40 S2        29.76F                  
COEURDALENE,ID CLEAR     63  54  72 CALM      29.75S                  
DEER PARK      CLEAR     62  51  67 E3        29.75F                  
$$

WAZ029>033-301000-
SOUTHEAST WASHINGTON
  
CITY           SKY/WX    TMP DP  RH WIND       PRES   REMARKS
PULLMAN        CLEAR     59  47  64 CALM      29.81F                  
LEWISTON, ID   CLEAR     77  46  33 CALM      29.73S                  
WALLA WALLA    CLEAR     79  51  37 S15       29.77R                  
PENDLETON, OR  CLEAR     79  50  36 W15       29.80R                  
$$